This is the latest recevied weather packets stored in our database for station/object G4KVI. If no packets are shown the sender has not sent any weather packets the latest 10 day(s).
| Time | Temp. | Humidity | Pressure | Rain* | Wind** | Luminosity | Snow |
|---|---|---|---|---|---|---|---|
| 1788366904 | 19.44° C | 92% | 1018.4 hPa | 0.51 mm | - | 93 W/m² | - |
| 1788366604 | 19.44° C | 92% | 1018.4 hPa | 0.51 mm | - | 96 W/m² | - |
| 1788366304 | 19.44° C | 92% | 1018.6 hPa | 0.51 mm | - | 80 W/m² | - |
| 1788366004 | 18.89° C | 92% | 1018.1 hPa | 0.51 mm | - | 144 W/m² | - |
| 1788365704 | 18.89° C | 92% | 1018.2 hPa | 0.51 mm | - | 160 W/m² | - |
| 1788365404 | 18.89° C | 92% | 1018.3 hPa | 0.51 mm | - | 121 W/m² | - |
| 1788365104 | 18.89° C | 92% | 1018.2 hPa | 0.51 mm | - | 85 W/m² | - |
| 1788364804 | 18.89° C | 92% | 1018.3 hPa | 0.25 mm | - | 38 W/m² | - |
| 1788364504 | 18.89° C | 91% | 1018.2 hPa | 0.25 mm | - | 66 W/m² | - |
| 1788364204 | 18.89° C | 91% | 1018.5 hPa | 0 mm | - | 132 W/m² | - |
| 1788363904 | 18.89° C | 91% | 1018.1 hPa | 0 mm | - | 110 W/m² | - |
| 1788363604 | 18.89° C | 91% | 1018.4 hPa | 0 mm | - | 80 W/m² | - |
| 1788363304 | 18.89° C | 90% | 1018.3 hPa | 0 mm | - | 69 W/m² | - |
| 1788363004 | 18.89° C | 89% | 1018.3 hPa | 0 mm | - | 87 W/m² | - |
| 1788362704 | 19.44° C | 88% | 1018.4 hPa | 0 mm | - | 108 W/m² | - |
| 1788362404 | 19.44° C | 87% | 1018.3 hPa | 0 mm | - | 84 W/m² | - |
| 1788362104 | 20° C | 85% | 1018.3 hPa | 0 mm | - | 89 W/m² | - |
| 1788361804 | 20° C | 85% | 1018.3 hPa | 0 mm | - | 153 W/m² | - |
| 1788361504 | 20° C | 85% | 1018.3 hPa | 0 mm | - | 111 W/m² | - |
| 1788361204 | 20° C | 85% | 1018.2 hPa | 0 mm | - | 204 W/m² | - |
| 1788360904 | 19.44° C | 86% | 1018.3 hPa | 0 mm | - | 199 W/m² | - |
| 1788360604 | 19.44° C | 86% | 1018.3 hPa | 0 mm | - | 198 W/m² | - |
| 1788360304 | 19.44° C | 87% | 1018.2 hPa | 0 mm | - | 171 W/m² | - |
| 1788360004 | 19.44° C | 88% | 1018.6 hPa | 0 mm | - | 154 W/m² | - |
| 1788359704 | 18.89° C | 88% | 1018.6 hPa | 0 mm | - | 152 W/m² | - |
* Rain latest hour (hover to see other rain measurements)
** Current wind speed in m/s (hover to see current wind gust speed)